[[{"header":{"parameterUnit":"m.s-1","parameterCategory":1,"la1":30.2991,"la2":30.254,"lo1":-89.0895,"lo2":-89.0444,"dy":0.0017,"dx":0.0017,"nx":28,"ny":28,"refTime":"2024-12-11T03:00:00:Z","depth":0,"parameterNumber":2,"parameterNumberName":"U-component_of_WINDS"},"data":[0,0,0,0,0,0,0,0,0,0,0,0,0,0,0,0,0,0,0,0,0,0,0,0,0,0,0,0,0,0,0,0,0,0,0,0,0,0,0,0,0,0,0,0,0,0,0,0,0,0,0,0,0,0,0,0,0,0,-3.6659,-3.666,0,-3.6693,-3.6693,-3.6693,-3.6564,-3.6561,-3.6557,-3.6553,-3.6589,-3.6594,-3.6598,0,0,0,0,0,0,0,0,0,0,0,0,0,-3.6486,-3.649,-3.6659,-3.666,-3.666,-3.6693,-3.6693,-3.6693,-3.6565,-3.656,-3.6556,-3.6551,-3.6588,-3.6593,-3.6599,0,0,0,0,0,0,0,0,0,0,0,0,0,-3.6544,-3.6491,-3.6659,-3.66,-3.6595,-3.6692,-3.6693,-3.6694,-3.6566,-3.656,-3.6555,-3.6549,-3.6586,-3.6593,-3.6599,-3.6756,0,0,-3.662,-3.6623,0,0,0,0,0,0,0,0,-3.6541,-3.6551,-3.6608,-3.6604,-3.6599,-3.6618,-3.6645,-3.6715,-3.6568,-3.6577,-3.6553,-3.6546,-3.6604,-3.6609,-3.6628,-3.6758,-3.6759,-3.6621,-3.6625,-3.6628,-3.663,0,0,0,0,0,0,0,-3.6537,-3.6549,-3.6672,-3.6609,-3.6604,-3.6572,-3.6574,-3.6657,-3.6622,-3.6576,-3.6567,-3.6572,-3.66,-3.6621,-3.6628,-3.676,-3.6621,-3.6627,-3.6631,-3.6633,-3.702,-3.7026,0,0,0,0,0,0,-3.6541,-3.6546,-3.6671,-3.6673,-3.6555,-3.658,-3.6582,-3.6618,-3.6621,-3.6616,-3.6577,-3.6566,-3.6613,-3.662,-3.6628,-3.6812,-3.6628,-3.6634,-3.6638,-3.7014,-3.7021,-3.7028,0,0,0,0,0,0,-3.6538,-3.6553,-3.667,-3.6607,-3.662,-3.6589,-3.663,-3.6622,-3.6643,-3.6622,-3.6615,-3.6605,-3.6608,-3.6619,-3.6725,-3.6812,-3.6637,-3.6643,-3.7007,-3.7016,-3.7025,-3.7182,0,0,0,0,0,0,-3.6533,-3.6553,-3.6612,-3.661,-3.6624,-3.6767,-3.6636,-3.6626,-3.6655,-3.6641,-3.6647,-3.6642,-3.6605,-3.6716,-3.6732,-3.6818,-3.6649,-3.6999,-3.7011,-3.7022,-3.7169,-3.7196,-3.7218,0,0,0,0,0,-3.6527,-3.6656,-3.6616,-3.6632,-3.6697,-3.6772,-3.678,-3.6734,-3.6662,-3.6722,-3.6708,-3.6642,-3.6799,-3.6728,-3.6745,-3.6835,-3.6993,-3.7007,-3.7021,-3.7158,-3.7191,-3.7218,0,0,0,0,0,0,-3.667,-3.6654,-3.661,-3.6741,-3.6759,-3.675,-3.6824,-3.677,-3.6809,-3.6794,-3.6735,-3.6738,-3.6855,-3.6854,-3.6775,-3.6986,-3.6884,-3.6902,-3.6982,-3.7013,-3.7037,-3.7036,-3.6654,0,0,0,0,0,-3.6717,-3.6779,-3.6761,-3.6879,-3.689,-3.6856,-3.6886,-3.6849,-3.6865,-3.6872,-3.6866,-3.6885,-3.6938,-3.6975,-3.7023,-3.7168,-3.7167,-3.7237,-3.7262,-3.7282,-3.73,-3.7376,-3.7407,-3.7074,-3.7074,-3.7073,0,0,-3.6814,-3.6813,-3.6856,-3.6907,-3.6916,-3.6982,-3.6863,-3.6937,-3.6986,-3.6884,-3.6984,-3.698,-3.6997,-3.7123,-3.7179,-3.7127,-3.7391,-3.73,-3.7317,-3.7323,-3.7393,-3.7425,-3.7453,-3.7083,-3.7082,-3.708,0,0,-3.7025,-3.703,-3.7128,-3.714,-3.7155,-3.7131,-3.7155,-3.7154,-3.7148,-3.7247,-3.7172,-3.7228,-3.7322,-3.7337,-3.7357,-3.7572,-3.7513,-3.7589,-3.7719,-3.7794,-3.7821,-3.7844,-3.7921,-3.795,-3.7606,-3.7606,-3.7606,0,-3.7145,-3.724,-3.7186,-3.7266,-3.7291,-3.72,-3.73,-3.7313,-3.7344,-3.7364,-3.7305,-3.742,-3.7425,-3.7553,-3.7606,-3.7625,-3.765,-3.759,-3.7821,-3.7843,-3.7864,-3.7938,-3.7967,-3.7615,-3.7614,-3.7613,-3.7613,0,-3.7387,-3.7454,-3.7532,-3.7563,-3.7596,-3.7686,-3.7645,-3.7686,-3.7645,-3.7628,-3.773,-3.7732,-3.7779,-3.7806,-3.7768,-3.793,-3.7897,-3.7831,-3.7727,-3.7906,-3.7974,-3.8002,-3.7629,-3.7625,-3.7623,-3.762,0,0,-3.7691,-3.769,-3.7719,-3.7732,-3.7742,-3.7793,-3.7878,-3.7923,-3.7959,-3.7982,-3.8053,-3.8133,-3.8071,-3.8094,-3.8056,-3.8122,-3.8293,-3.8047,-3.8046,-3.8094,-3.8472,-3.8524,-3.8557,-3.8253,-3.8258,-3.8262,-3.8471,0,-3.7899,-3.8044,-3.7997,-3.8144,-3.8206,-3.812,-3.8194,-3.8208,-3.8193,-3.8244,-3.8227,-3.8286,-3.8199,-3.8212,-3.8273,-3.826,-3.8369,-3.8243,-3.8319,-3.8322,-3.8319,-3.8593,-3.8647,-3.8845,-3.8498,-3.8502,-3.8505,0,-3.8162,-3.8195,-3.8349,-3.8347,-3.8371,-3.8438,-3.8476,-3.8525,-3.8538,-3.8523,-3.8548,-3.8496,-3.8579,-3.8474,-3.8588,-3.8504,-3.8531,-3.8529,-3.8536,-3.8542,-3.8426,-3.8608,-3.8906,-3.8937,-3.8547,-3.8543,-3.854,0,-3.837,-3.8453,-3.8555,-3.8569,-3.8569,-3.8619,-3.8621,-3.8629,-3.8659,-3.8691,-3.871,-3.8752,-3.8776,-3.881,-3.877,-3.8697,-3.8891,-3.8782,-3.8881,-3.8882,-3.8927,-3.8926,-3.9236,-3.8943,-3.8943,-3.8942,-3.8941,0,-3.8608,-3.8706,-3.8649,-3.8712,-3.8819,-3.8763,-3.8871,-3.8863,-3.8871,-3.8931,-3.8859,-3.8917,-3.886,-3.8913,-3.8883,-3.8982,-3.8993,-3.8984,-3.8975,-3.8991,-3.8993,-3.901,-3.8996,-3.895,-3.8948,-3.8946,-3.8945,0,-3.886,-3.8826,-3.8932,-3.8923,-3.8923,-3.9002,-3.8994,-3.9052,-3.9031,-3.9109,-3.9124,-3.9092,-3.9151,-3.9114,-3.9173,-3.9153,-3.9283,-3.9254,-3.9279,-3.9272,-3.9373,-3.9365,-3.9707,-3.9749,-3.9428,-3.9431,-3.9434,0,-3.9015,-3.9088,-3.9087,-3.9122,-3.9129,-3.9186,-3.9216,-3.9164,-3.9198,-3.9219,-3.9275,-3.9327,-3.9366,-3.9464,-3.9446,-3.9491,-3.9464,-3.958,-3.947,-3.9485,-3.9467,-3.9464,-3.9471,-3.9604,-3.9607,-3.961,-3.9613,0,-3.9295,-3.9274,-3.932,-3.936,-3.9397,-3.9426,-3.9449,-3.9482,-3.9429,-3.9472,-3.953,-3.9561,-3.9621,-3.9674,-3.9711,-3.9713,-3.9656,-3.9647,-3.9673,-3.9691,-3.9703,-3.9699,-3.9341,-3.964,-3.9638,-3.9636,-3.9634,-3.9633,-3.9504,-3.9565,-3.9573,-3.9626,-3.9638,-3.9661,-3.9715,-3.97,-3.9748,-3.9793,-3.9759,-3.9829,-3.984,-3.9884,-3.9894,-3.9948,-3.9901,-3.9938,-3.9947,-3.9958,-3.9972,-3.9693,-3.9955,-3.9954,-3.9953,-3.9952,-3.9952,0,-3.9781,-3.9782,-3.9831,-3.9865,-3.9907,-3.9846,-3.9869,-3.9908,-3.997,-3.9985,-4.0025,-4.0092,-4.0143,-4.0128,-4.0174,-4.022,-4.0194,-4.0234,-4.0231,-4.0232,-4.0011,-3.9985,-4.0254,-4.0254,-4.0253,-4.0253,-4.0253,-4.0253,-3.993,-4.003,-4.001,-4.0114,-4.0114,-4.0182,-4.0199,-4.022,-4.0232,-4.031,-4.0352,-4.0341,-4.0345,-4.0389,-4.0433,-4.0427,-4.0448,-4.0498,-4.0483,-4.0277,-4.0248,-4.0219,-4.0195,-4.0502,-4.0503,-4.0699,-4.0701,-4.0702]},{"header":{"parameterUnit":"m.s-1","parameterCategory":1,"la1":30.2991,"la2":30.254,"lo1":-89.0895,"lo2":-89.0444,"dy":0.0017,"dx":0.0017,"nx":28,"ny":28,"refTime":"2024-12-11T03:00:00:Z","depth":0,"parameterNumber":3,"parameterNumberName":"V-component_of_WINDS"},"data":[0,0,0,0,0,0,0,0,0,0,0,0,0,0,0,0,0,0,0,0,0,0,0,0,0,0,0,0,0,0,0,0,0,0,0,0,0,0,0,0,0,0,0,0,0,0,0,0,0,0,0,0,0,0,0,0,0,0,-3.4803,-3.4804,0,-3.4873,-3.4873,-3.4874,-3.4827,-3.4825,-3.4822,-3.482,-3.4891,-3.4895,-3.4899,0,0,0,0,0,0,0,0,0,0,0,0,0,-3.4628,-3.4632,-3.4803,-3.4804,-3.4805,-3.4872,-3.4873,-3.4874,-3.4827,-3.4825,-3.4822,-3.4819,-3.489,-3.4895,-3.4899,0,0,0,0,0,0,0,0,0,0,0,0,0,-3.4702,-3.4633,-3.4803,-3.4789,-3.4789,-3.4872,-3.4873,-3.4875,-3.4828,-3.4824,-3.4821,-3.4818,-3.4888,-3.4894,-3.49,-3.5,0,0,-3.4918,-3.492,0,0,0,0,0,0,0,0,-3.4698,-3.4708,-3.4791,-3.4791,-3.479,-3.4838,-3.4838,-3.4917,-3.4829,-3.4813,-3.482,-3.4817,-3.4876,-3.4883,-3.4903,-3.5003,-3.5007,-3.4918,-3.4922,-3.4924,-3.4926,0,0,0,0,0,0,0,-3.4693,-3.4705,-3.4831,-3.4792,-3.4792,-3.4779,-3.4786,-3.4852,-3.4862,-3.4814,-3.4811,-3.482,-3.4875,-3.4897,-3.4904,-3.5008,-3.4918,-3.4923,-3.4927,-3.4929,-3.5193,-3.5196,0,0,0,0,0,0,-3.4689,-3.4701,-3.4828,-3.4833,-3.4735,-3.4785,-3.4793,-3.4826,-3.4861,-3.4863,-3.4822,-3.4817,-3.4889,-3.4897,-3.4906,-3.5026,-3.4924,-3.493,-3.4933,-3.519,-3.5194,-3.5198,0,0,0,0,0,0,-3.4685,-3.4701,-3.4826,-3.4766,-3.4781,-3.4792,-3.4829,-3.4829,-3.4851,-3.4867,-3.4868,-3.4843,-3.4887,-3.4898,-3.4977,-3.5028,-3.4932,-3.4938,-3.5185,-3.5191,-3.5196,-3.5266,0,0,0,0,0,0,-3.468,-3.47,-3.4738,-3.4767,-3.4784,-3.4896,-3.4832,-3.4832,-3.4861,-3.4855,-3.4887,-3.4889,-3.4885,-3.4969,-3.4983,-3.5034,-3.4942,-3.5181,-3.5188,-3.5194,-3.5259,-3.5273,-3.5285,0,0,0,0,0,-3.4674,-3.4755,-3.4741,-3.4756,-3.4833,-3.4899,-3.4909,-3.4902,-3.4865,-3.4904,-3.4914,-3.4888,-3.502,-3.4977,-3.4993,-3.5046,-3.5178,-3.5186,-3.5194,-3.5253,-3.527,-3.5284,0,0,0,0,0,0,-3.4732,-3.4759,-3.4743,-3.4836,-3.4865,-3.4891,-3.4939,-3.492,-3.4961,-3.4954,-3.4943,-3.4951,-3.5034,-3.5048,-3.5,-3.5145,-3.5093,-3.5104,-3.5133,-3.5149,-3.5162,-3.5157,-3.4947,0,0,0,0,0,-3.4756,-3.4807,-3.4828,-3.4908,-3.4923,-3.4929,-3.4957,-3.495,-3.498,-3.4992,-3.5008,-3.5039,-3.5086,-3.5118,-3.5163,-3.526,-3.5267,-3.5305,-3.5318,-3.5328,-3.5338,-3.539,-3.5407,-3.5224,-3.5224,-3.5223,0,0,-3.4805,-3.4826,-3.4859,-3.492,-3.4942,-3.4995,-3.494,-3.4999,-3.5038,-3.5001,-3.5077,-3.5089,-3.5122,-3.5211,-3.525,-3.5225,-3.539,-3.5338,-3.5346,-3.5351,-3.54,-3.5418,-3.5433,-3.5229,-3.5228,-3.5227,0,0,-3.4922,-3.4943,-3.5012,-3.5035,-3.5069,-3.5072,-3.5089,-3.5117,-3.5124,-3.5199,-3.5173,-3.5219,-3.5302,-3.5326,-3.5349,-3.5474,-3.5452,-3.5489,-3.5557,-3.5607,-3.5622,-3.5634,-3.5679,-3.5695,-3.5499,-3.5499,-3.55,0,-3.4979,-3.5059,-3.505,-3.5111,-3.5138,-3.5106,-3.5176,-3.5198,-3.5245,-3.5265,-3.5235,-3.5338,-3.5358,-3.5451,-3.5482,-3.5502,-3.552,-3.5486,-3.562,-3.5633,-3.5645,-3.5687,-3.5704,-3.5504,-3.5503,-3.5503,-3.5502,0,-3.5127,-3.5183,-3.5234,-3.528,-3.5313,-3.5378,-3.5378,-3.5412,-3.5401,-3.5407,-3.5484,-3.5506,-3.5555,-3.5576,-3.5567,-3.5669,-3.5652,-3.5622,-3.5569,-3.5667,-3.5707,-3.5723,-3.551,-3.5508,-3.5507,-3.5506,0,0,-3.5284,-3.5324,-3.5343,-3.5363,-3.5397,-3.544,-3.5503,-3.555,-3.558,-3.5613,-3.5665,-3.5735,-3.5707,-3.5734,-3.5726,-3.577,-3.5868,-3.5735,-3.5735,-3.5759,-3.5981,-3.6004,-3.6023,-3.5853,-3.5856,-3.5858,-3.5978,0,-3.5403,-3.5513,-3.5506,-3.561,-3.566,-3.5631,-3.5685,-3.5712,-3.5719,-3.5762,-3.577,-3.582,-3.5779,-3.5795,-3.5837,-3.5847,-3.5912,-3.5838,-3.5901,-3.5904,-3.5895,-3.6044,-3.6068,-3.6181,-3.5994,-3.5996,-3.5998,0,-3.5557,-3.5596,-3.5704,-3.573,-3.5751,-3.5801,-3.5843,-3.5885,-3.5915,-3.5916,-3.5946,-3.593,-3.5993,-3.5938,-3.6025,-3.5974,-3.5999,-3.6008,-3.6012,-3.6018,-3.5957,-3.6054,-3.6216,-3.6234,-3.6023,-3.6021,-3.6019,0,-3.5661,-3.574,-3.5814,-3.5833,-3.5865,-3.59,-3.5915,-3.5942,-3.597,-3.6007,-3.6026,-3.607,-3.6094,-3.6128,-3.6125,-3.6085,-3.6212,-3.6157,-3.6215,-3.6216,-3.6244,-3.6243,-3.6413,-3.626,-3.6259,-3.6259,-3.6259,0,-3.5795,-3.5863,-3.5861,-3.5908,-3.5982,-3.5973,-3.6046,-3.6057,-3.6081,-3.6128,-3.6105,-3.615,-3.6142,-3.6187,-3.6184,-3.6256,-3.6267,-3.627,-3.6269,-3.6273,-3.6272,-3.629,-3.6282,-3.6263,-3.6262,-3.6262,-3.6261,0,-3.5924,-3.5926,-3.6006,-3.603,-3.6037,-3.6091,-3.6111,-3.6154,-3.6158,-3.6219,-3.6232,-3.6239,-3.629,-3.629,-3.6349,-3.6347,-3.6435,-3.6424,-3.6425,-3.6423,-3.6481,-3.6476,-3.6669,-3.6694,-3.6524,-3.6526,-3.6527,0,-3.601,-3.6062,-3.6091,-3.6121,-3.6138,-3.6187,-3.6216,-3.6208,-3.6239,-3.6276,-3.6315,-3.6364,-3.6403,-3.6486,-3.6496,-3.6541,-3.6531,-3.6596,-3.6538,-3.654,-3.6533,-3.653,-3.6535,-3.6608,-3.661,-3.6611,-3.6612,0,-3.6163,-3.6161,-3.6204,-3.6247,-3.6282,-3.6316,-3.6347,-3.6373,-3.6369,-3.6405,-3.6457,-3.6487,-3.6546,-3.6595,-3.6638,-3.6653,-3.6632,-3.663,-3.6646,-3.6651,-3.665,-3.6651,-3.6457,-3.6626,-3.6625,-3.6624,-3.6623,-3.6623,-3.6273,-3.6317,-3.6344,-3.6393,-3.6415,-3.6444,-3.6486,-3.6495,-3.6538,-3.6586,-3.6579,-3.6637,-3.6664,-3.6719,-3.6738,-3.6783,-3.676,-3.6783,-3.6789,-3.6795,-3.6801,-3.6642,-3.6791,-3.679,-3.679,-3.6789,-3.6789,0,-3.6424,-3.644,-3.6485,-3.6528,-3.6566,-3.6543,-3.6576,-3.6609,-3.6661,-3.6688,-3.6726,-3.6786,-3.6833,-3.6846,-3.6891,-3.6925,-3.6916,-3.6937,-3.6935,-3.6938,-3.6819,-3.6801,-3.6943,-3.6943,-3.6943,-3.6943,-3.6943,-3.6943,-3.6507,-3.658,-3.6581,-3.6665,-3.668,-3.6737,-3.6758,-3.6784,-3.6805,-3.6873,-3.6912,-3.692,-3.6942,-3.6988,-3.703,-3.7032,-3.705,-3.7075,-3.7074,-3.6962,-3.6947,-3.6932,-3.6915,-3.7079,-3.7079,-3.719,-3.7191,-3.7191]}]]